Regional Weather Roundup
Issued by NWS

Home | Current Version | Previous Version | Graphics & Text | Print | Product List | Glossary On
Versions: 1 2 3 4 5 6 7 8 9 10 11 12 13 14 15 16 17 18 19 20 21 22 23 24 25 26 27 28 29 30 31 32 33 34 35 36 37 38 39 40 41 42 43 44 45 46 47 48 49 50
000
ASUS43 KDMX 161806
RWRIA

WEATHER ROUNDUP FOR IOWA
NATIONAL WEATHER SERVICE DES MOINES IA
1200 PM CST MON JAN 16 2017

NOTE: "FAIR" INDICATES FEW OR NO CLOUDS BELOW 12,000 FEET WITH NO
SIGNIFICANT WEATHER AND/OR OBSTRUCTIONS TO VISIBILITY.

* - THESE STATIONS ARE NOT NWS STATIONS...THUS NOT UNDER NWS
QUALITY CONTROL.  THEY ALSO DO NOT REPORT WEATHER SUCH
AS PRECIPITATION OR FOG.

IAZ001>003-012>014-020>022-031>034-043>046-161900-
   NORTHWEST IOWA

CITY           SKY/WX    TMP DP  RH WIND       PRES   REMARKS
CARROLL *      CLOUDY    34  34 100 NE9       29.96F FOG     WCI  26
CHEROKEE *     MIX PCPN  32  32 100 NE6       30.01F WCI  26
DENISON *      LGT RAIN  32  32 100 NE9G16    29.93F WCI  24
LE MARS *      MIX PCPN  32  30  93 NE12      30.02F VSB 3/4 WCI  23
ORANGE CITY *  MIX PCPN  30  30 100 NE8       30.00F WCI  23
SHELDON *      CLOUDY    30  30 100 NE13      30.00F FOG     WCI  20
SIOUX CITY     LGT RAIN  34  32  92 NE7       30.01F FOG     WCI  28
6HR MIN TEMP:  33; 6HR MAX TEMP:  34; 6HR PCP:  0.02;

SPENCER        FRZ RAIN  31  30  96 NE13      30.02F VSB 1/2 WCI  21
6HR MIN TEMP:  28; 6HR MAX TEMP:  31; 6HR PCP: TRACE;

STORM LAKE *   MIX PCPN  32  30  93 E12       29.99F VSB 1/2 WCI  23
$$

IAZ055>058-069>071-079>083-090>094-161900-
   SOUTHWEST IOWA

CITY           SKY/WX    TMP DP  RH WIND       PRES   REMARKS
ATLANTIC *     LGT RAIN  34  32  93 E8        29.93F WCI  27
AUDUBON *      MIX PCPN  32  30  93 E5        29.94F WCI  27
CLARINDA *     CLOUDY    34  34 100 E6        29.92F FOG     WCI  29
COUNCIL BLFS * PTSUNNY   32  32 100 NE8       29.92F WCI  25
CRESTON *      LGT RAIN  32  32 100 E13       29.92F WCI  22
HARLAN  *      LGT RAIN  32  32 100 NE6       29.97F WCI  26
LAMONI         LGT RAIN  33  33 100 E6        29.91F FOG     WCI  28
6HR MIN TEMP:  32; 6HR MAX TEMP:  33; 6HR PCP:  0.62;

RED OAK *      RAIN      34  34 100 NE9       29.91F WCI  26
SHENANDOAH *   CLOUDY    34  34 100 NE8       29.91F FOG     WCI  27
$$

IAZ047>049-059>061-072>074-084-161900-
   CENTRAL IOWA

CITY           SKY/WX    TMP DP  RH WIND       PRES   REMARKS
AMES           RAIN      33  33 100 E9        29.98F FOG     WCI  25
6HR MIN TEMP:  31; 6HR MAX TEMP:  33; 6HR PCP:  0.37;

ANKENY *       LGT RAIN  32  32 100 MISG      29.97F
BOONE *        LGT RAIN  32  32 100 MISG      29.96F
CHARITON *     LGT RAIN  34  32  93 E9        29.94F WCI  26
DES MOINES     LGT RAIN  34  32  92 E8        29.96F FOG     WCI  27
6HR MIN TEMP:  32; 6HR MAX TEMP:  34; 6HR PCP:  0.49;

GRINNELL*      LGT RAIN  32  32  99 E9        30.00F WCI  25
KNOXVILLE *    LGT RAIN  34  32  93 E12G20    29.93F WCI  25
MARSHALLTOWN   MIX PCPN  32  32 100 E13       29.99F FOG     WCI  22
6HR MIN TEMP:  30; 6HR MAX TEMP:  32; 6HR PCP: TRACE;

NEWTON *       CLOUDY    32  32 100 E12G18    29.97F FOG     WCI  23
PELLA *        LGT RAIN  33  32  98 E7        29.97F WCI  26
PERRY *        LGT RAIN  33  33 100 E5        29.96F WCI  28
$$

IAZ004>006-015-016-023>025-035-036-161900-
   NORTH CENTRAL IOWA

CITY           SKY/WX    TMP DP  RH WIND       PRES   REMARKS
ALGONA *       CLOUDY    32  32 100 NE10      30.01F FOG     WCI  24
CLARION *      CLOUDY    32  32 100 E10       30.01F FOG     WCI  24
ESTHERVILLE    CLOUDY    29  29 100 NE10      30.03F FOG     WCI  20
6HR MIN TEMP:  26; 6HR MAX TEMP:  30;

FORT DODGE *   CLOUDY    32  28  86 CALM      30.01F
MASON CITY     MIX PCPN  31  30  96 E10       30.04F FOG     WCI  22
6HR MIN TEMP:  28; 6HR MAX TEMP:  32; 6HR PCP:  0.02;

FOREST CITY *  DRIZZLE   32  32 100 E7        30.03F WCI  26
WEBSTER CITY * MIX PCPN  32  32 100 E10       29.98F WCI  24
IOWA FALLS *   MIX PCPN  33  32  96 E7        30.02F WCI  27
$$

IAZ007>011-017>019-026>030-037>042-050>054-066-161900-
   NORTHEAST IOWA

CITY           SKY/WX    TMP DP  RH WIND       PRES   REMARKS
CEDAR RAPIDS   LGT RAIN  32  31  96 E12       30.03F WCI  23
6HR MIN TEMP:  30; 6HR MAX TEMP:  32; 6HR PCP:  0.26;

CHARLES CITY * CLOUDY    32  32 100 E12       30.05F FOG     WCI  23
CLINTON *      RAIN      33  32  96 E13       30.08F FOG     WCI  24
DECORAH *      MIX PCPN  32  30  93 E9        30.06F WCI  24
DUBUQUE        MIX PCPN  32  31  96 E8        30.08F FOG     WCI  25
6HR MIN TEMP:  29; 6HR MAX TEMP:  32; 6HR PCP:  0.11;

MONTICELLO *   LGT RAIN  34  32  93 E9        30.07F VSB 1   WCI  26
OELWEIN *      LGT RAIN  32  32 100 E10G16    30.04F WCI  24
WATERLOO       MIX PCPN  32  31  96 E9        30.03F FOG     WCI  24
6HR MIN TEMP:  31; 6HR MAX TEMP:  32; 6HR PCP:  0.12;

$$

IAZ064-065-067-068-078-161900-
   EAST CENTRAL IOWA

CITY           SKY/WX    TMP DP  RH WIND       PRES   REMARKS
DAVENPORT      RAIN      34  33  96 E10       30.07F FOG     WCI  26
6HR MIN TEMP:  31; 6HR MAX TEMP:  34; 6HR PCP:  0.28;

IOWA CITY      LGT RAIN  34  32  92 E9        30.06F FOG     WCI  27
6HR MIN TEMP:  32; 6HR MAX TEMP:  34; 6HR PCP:  0.31;

MUSCATINE *    CLOUDY    36  34  93 E6        30.06F FOG     WCI  31
QUAD CITIES    RAIN      36  33  89 E10       30.07F FOG     WCI  28
6HR MIN TEMP:  32; 6HR MAX TEMP:  36; 6HR PCP:  0.46;

$$

IAZ062-063-075>077-085>089-095>099-161900-
   SOUTHEAST IOWA

CITY           SKY/WX    TMP DP  RH WIND       PRES   REMARKS
BURLINGTON     RAIN      35  35 100 E8        30.04F FOG     WCI  29
6HR MIN TEMP:  32; 6HR MAX TEMP:  35; 6HR PCP:  0.53;

FAIRFIELD *    CLOUDY    34  32  93 E14       30.00F FOG     WCI  24
FORT MADISON * RAIN      36  34  93 E8        30.03F WCI  29
KEOKUK *       LGT RAIN  36  36 100 E14       30.01F WCI  27
OSKALOOSA *    LGT SNOW  32  32  99 E14       29.98F WCI  22
CENTERVILLE *  LGT RAIN  32  32 100 CALM      29.96F
OTTUMWA        RAIN      33  50 100 E14       29.96F WCI  23
6HR MIN TEMP:  32; 6HR MAX TEMP:  33; 6HR PCP:  0.49;

WASHINGTON *   LGT RAIN  34  32  93 E10       30.04F WCI  26
$$

ABBREVIATIONS USED IN REMARKS
   TC - TEMPERATURES IN CELSIUS
  WCI - WIND CHILL INDEX
   HX - HEAT INDEX
  VSB - VISIBILITY
$$




USA.gov is the U.S. government's official web portal to all federal, state and local government web resources and services.